FW6644 Weather Reports


Display with metric or nautical units.
time (UTC)temp
F
wind
direction
speed
MPH
gust
MPH
rain 1hr
in
rain 24hr
in
rain mn
in
humidity
%
barometer
mb
20260510043037 90 266 0.0 2.0 0.00 0.00 0.00 11 1004.1
20260510041536 91 252 0.0 2.0 0.00 0.00 0.00 11 1004.0
20260510040036 92 253 1.0 3.0 0.00 0.00 0.00 10 1003.9
20260510034537 93 240 1.0 3.0 0.00 0.00 0.00 10 1003.7
20260510033034 94 245 1.0 4.0 0.00 0.00 0.00 9 1003.5
20260510031536 95 249 1.0 5.0 0.00 0.00 0.00 9 1003.4
20260510030033 95 11 1.0 6.0 0.00 0.00 0.00 9 1003.2
20260510024534 96 243 2.0 7.0 0.00 0.00 0.00 8 1002.9
20260510023033 97 269 3.0 8.0 0.00 0.00 0.00 8 1002.8
20260510021537 97 307 2.0 7.0 0.00 0.00 0.00 8 1002.7
20260510020030 99 219 3.0 8.0 0.00 0.00 0.00 8 1002.6
20260510014532 100 277 3.0 9.0 0.00 0.00 0.00 8 1002.6
20260510013028 100 269 2.0 13.0 0.00 0.00 0.00 8 1002.5
20260510011531 101 245 2.0 7.0 0.00 0.00 0.00 8 1002.6
20260510010027 101 253 7.0 11.0 0.00 0.00 0.00 8 1002.6
20260510004527 102 212 7.0 12.0 0.00 0.00 0.00 8 1002.6
20260510003028 103 249 1.0 8.0 0.00 0.00 0.00 8 1002.6
20260510001528 102 177 4.0 13.0 0.00 0.00 0.00 8 1002.7
20260510000025 103 298 5.0 11.0 0.00 0.00 0.00 8 1002.6
20260509234529 103 238 2.0 12.0 0.00 0.00 0.00 8 1002.8
20260509233021 103 215 1.0 9.0 0.00 0.00 0.00 7 1003.0
20260509231519 103 195 3.0 15.0 0.00 0.00 0.00 8 1003.0
20260509230019 103 46 1.0 8.0 0.00 0.00 0.00 7 1003.1
20260509224516 103 6 2.0 8.0 0.00 0.02 0.00 7 1003.4
20260509223016 103 248 3.0 10.0 0.00 0.02 0.00 8 1003.6
20260509221516 103 338 2.0 7.0 0.00 0.02 0.00 8 1003.9
20260509220010 103 72 2.0 9.0 0.00 0.02 0.00 8 1004.0
20260509214507 101 326 3.0 11.0 0.00 0.02 0.00 8 1004.4
20260509213007 102 343 6.0 13.0 0.00 0.02 0.00 8 1004.6
20260509211508 102 243 3.0 9.0 0.00 0.02 0.00 8 1004.9
20260509210007 103 351 1.0 5.0 0.00 0.02 0.00 9 1005.0
20260509204559 102 238 3.0 9.0 0.00 0.02 0.00 9 1005.3
20260509203055 101 212 3.0 7.0 0.00 0.02 0.00 10 1005.7
20260509201600 101 302 0.0 0.0 0.00 0.02 0.00 10 1005.9
20260509194552 102 240 2.0 8.0 0.00 0.02 0.00 10 1006.3
20260509193052 100 145 3.0 7.0 0.00 0.02 0.00 11 1006.5
20260509191549 101 231 1.0 6.0 0.00 0.02 0.00 10 1006.7
20260509190058 99 214 3.0 7.0 0.00 0.02 0.00 11 1006.9
20260509184545 99 343 1.0 6.0 0.00 0.02 0.00 11 1007.2
20260509183045 99 125 2.0 6.0 0.00 0.02 0.00 11 1007.3
20260509181545 99 131 1.0 5.0 0.00 0.02 0.00 12 1007.6
20260509180045 98 122 0.0 3.0 0.00 0.02 0.00 13 1007.8
20260509174539 97 321 0.0 5.0 0.00 0.02 0.00 13 1008.0
20260509173035 96 169 1.0 4.0 0.00 0.02 0.00 14 1008.1
20260509171538 93 179 1.0 6.0 0.00 0.02 0.00 14 1008.1
20260509170034 93 119 1.0 4.0 0.00 0.02 0.00 14 1008.2
20260509164529 91 78 0.0 3.0 0.00 0.02 0.00 16 1008.1
20260509163027 91 144 1.0 5.0 0.00 0.02 0.00 17 1008.2
20260509161525 89 353 0.0 3.0 0.00 0.02 0.00 19 1008.2
20260509160023 88 232 0.0 4.0 0.00 0.02 0.00 19 1008.2
20260509154519 86 114 1.0 4.0 0.00 0.02 0.00 19 1008.2
20260509153016 86 91 0.0 5.0 0.00 0.02 0.00 19 1008.2
20260509151514 84 160 2.0 4.0 0.00 0.02 0.00 20 1008.3
20260509150017 82 109 0.0 3.0 0.00 0.02 0.00 23 1008.2
20260509144507 81 176 0.0 3.0 0.00 0.02 0.00 24 1008.2
20260509143005 80 121 0.0 2.0 0.00 0.02 0.00 25 1008.1
20260509141508 78 148 0.0 2.0 0.00 0.02 0.00 26 1008.0
20260509140004 75 72 0.0 3.0 0.00 0.02 0.00 27 1008.0
20260509134505 75 103 1.0 3.0 0.00 0.02 0.00 28 1007.8
20260509133101 74 297 2.0 6.0 0.00 0.02 0.00 27 1007.6
20260509131558 73 345 0.0 5.0 0.00 0.02 0.00 26 1007.4
20260509130056 71 27 0.0 3.0 0.00 0.02 0.00 27 1007.2
20260509124553 70 30 1.0 3.0 0.00 0.02 0.00 28 1007.1
20260509123053 70 50 0.0 3.0 0.00 0.02 0.00 28 1006.9
20260509121553 70 72 0.0 2.0 0.00 0.02 0.00 29 1006.7
20260509120047 71 58 0.0 1.0 0.00 0.02 0.00 29 1006.5
20260509114547 71 67 0.0 2.0 0.00 0.02 0.00 29 1006.4
20260509113047 71 127 0.0 2.0 0.00 0.02 0.00 29 1006.3
20260509111544 72 55 0.0 2.0 0.00 0.02 0.00 29 1006.3
20260509110038 72 33 0.0 2.0 0.00 0.02 0.00 30 1006.2
20260509104537 73 64 0.0 1.0 0.00 0.02 0.00 30 1006.1
20260509103033 74 158 0.0 3.0 0.00 0.02 0.00 29 1006.0
20260509101541 74 136 0.0 2.0 0.00 0.02 0.00 28 1006.1
20260509100029 75 102 0.0 1.0 0.00 0.02 0.00 29 1006.1
20260509094529 75 86 0.0 1.0 0.00 0.02 0.00 29 1006.0
20260509093027 75 102 0.0 0.0 0.00 0.02 0.00 29 1006.0
20260509091524 76 125 0.0 0.0 0.00 0.02 0.00 27 1006.1
20260509090023 76 127 0.0 0.0 0.00 0.02 0.00 27 1006.1
20260509084518 77 249 0.0 1.0 0.00 0.02 0.00 26 1006.0
20260509083019 78 180 0.0 2.0 0.00 0.02 0.00 27 1006.0
20260509081514 78 114 0.0 1.0 0.00 0.02 0.00 26 1006.0
20260509080012 78 87 0.0 1.0 0.00 0.02 0.00 25 1005.9
20260509074509 79 102 0.0 2.0 0.00 0.02 0.00 25 1005.9
20260509073010 79 107 0.0 1.0 0.00 0.02 0.00 24 1005.8
20260509071505 80 184 0.0 0.0 0.00 0.02 0.00 24 1005.8
20260509070002 80 184 0.0 0.0 0.00 0.02 0.00 22 1005.8
20260509064501 81 184 0.0 1.0 0.00 0.02 0.02 20 1005.7
20260509063100 82 218 0.0 0.0 0.00 0.02 0.02 20 1005.7
20260509061623 82 218 0.0 0.0 0.00 0.02 0.02 20 1005.6
20260509054557 85 283 0.0 1.0 0.00 0.02 0.02 17 1005.6
20260509053056 87 188 0.0 3.0 0.00 0.02 0.02 17 1005.6
20260509051556 88 228 0.0 3.0 0.00 0.02 0.02 16 1005.6
20260509050100 88 221 1.0 3.0 0.00 0.02 0.02 16 1005.6
20260509044551 89 256 0.0 6.0 0.00 0.02 0.02 16 1005.5